DW8345 Tampa FL US current weather conditions

sailwx.info

Wind from 022

Air temperature 25.0° C
Dewpoint 23.2° C

Last reported at 2020-Aug-09 07:15 UTC.
Time now 2020-Aug-09 09:06 UTC

Location: N 27°55' W 082°27'.
View on Google Maps.

See reports from other nearby stations

  
Tides and Currents Weather Stations Pressure Air Temp Water Temp Dewpoint Dewpoint Depression Visibility Wind Speed Wind Dir Waves Ship Positions
date/time (UTC)wind fromknots sea level pressurealtimeterstation pressurevisibilityair tempwater tempwave heightnotes
2020-Aug-09 07:15 022 25.0
2020-Aug-09 07:00 022 25.0
2020-Aug-09 06:45 022 25.0
2020-Aug-09 06:30 022 24.4
2020-Aug-09 06:15 022 24.4
2020-Aug-09 06:00 022 24.4
2020-Aug-09 05:45 022 24.4
2020-Aug-09 05:30 038 23.9
2020-Aug-09 05:15 038 23.9
2020-Aug-09 05:00 311 23.9
2020-Aug-09 04:45 024 23.9
2020-Aug-09 04:30 019 23.9
2020-Aug-09 04:17 201 23.9
2020-Aug-09 04:01 234 24.4
2020-Aug-09 03:47 086 1 gusting 12 27.2
2020-Aug-09 03:32 163 0 gusting 15 28.9
2020-Aug-09 03:16 112 29.4
2020-Aug-09 03:00 112 29.4
2020-Aug-09 02:46 121 29.4
2020-Aug-09 02:31 053 29.4
2020-Aug-09 02:16 009 29.4
2020-Aug-09 02:01 346 0 gusting 5 30.0
2020-Aug-09 01:45 009 30.0
2020-Aug-09 01:30 360 30.0
2020-Aug-09 01:16 355 30.6
2020-Aug-09 01:00 319 30.6
2020-Aug-09 00:45 323 30.6
2020-Aug-09 00:30 338 30.6
2020-Aug-09 00:15 317 31.1
2020-Aug-09 00:00 321 31.1
2020-Aug-08 23:45 300 30.6
2020-Aug-08 23:30 349 30.6
2020-Aug-08 23:15 318 30.0
2020-Aug-08 23:00 306 30.0
2020-Aug-08 22:45 065 29.4
2020-Aug-08 22:30 069 28.9
2020-Aug-08 22:15 109 28.9
2020-Aug-08 22:02 319 28.9
2020-Aug-08 21:46 015 28.9
2020-Aug-08 21:32 061 28.9
2020-Aug-08 21:16
2020-Aug-08 20:45 309 1 gusting 9 31.7
2020-Aug-08 20:30 313 0 gusting 18 33.3
2020-Aug-08 20:15 355 34.4
2020-Aug-08 20:00 330 35.6
2020-Aug-08 19:46 310 37.2
2020-Aug-08 19:45 291 37.2
2020-Aug-08 19:31 181 37.8
2020-Aug-08 19:16 302 36.7
2020-Aug-08 19:01 194 1 gusting 6 36.1
2020-Aug-08 18:46 208 0 gusting 5 36.1
2020-Aug-08 18:31 193 35.0
2020-Aug-08 18:16 327 2 gusting 7 33.9
2020-Aug-08 18:01 311 3 gusting 7 33.3
2020-Aug-08 17:46 190 2 gusting 8 32.8
2020-Aug-08 17:31 162 1 gusting 6 32.8
2020-Aug-08 17:15 157 32.2
2020-Aug-08 17:01 171 0 gusting 5 31.7
2020-Aug-08 16:45 159 31.1
2020-Aug-08 16:30 160 0 gusting 7 30.6
2020-Aug-08 16:15 184 0 gusting 6 30.6
2020-Aug-08 16:00 179 30.0
2020-Aug-08 15:45 323 30.0
2020-Aug-08 15:30 170 1 gusting 5 29.4
2020-Aug-08 15:15 139 29.4
2020-Aug-08 15:00 011 0 gusting 5 28.9
2020-Aug-08 14:45 042 28.3
2020-Aug-08 14:31 067 28.3
2020-Aug-08 14:16 088 27.8
2020-Aug-08 14:01 360 27.8
2020-Aug-08 13:47 157 27.2
2020-Aug-08 13:31 166 27.2
2020-Aug-08 13:16 160 26.7
2020-Aug-08 13:01 032 26.1
2020-Aug-08 12:46 032 26.1
2020-Aug-08 12:31 028 25.6
2020-Aug-08 12:16 096 25.6
2020-Aug-08 12:00 130 25.6
2020-Aug-08 11:46 128 25.6
2020-Aug-08 11:30 128 25.6
2020-Aug-08 11:15 128 25.6
2020-Aug-08 11:01 128 25.6
2020-Aug-08 10:45 128 25.6
2020-Aug-08 10:32 128 25.6
2020-Aug-08 10:15 153 25.6
2020-Aug-08 10:01 153 25.6
2020-Aug-08 09:46 153 25.6
2020-Aug-08 09:30 153 25.6
2020-Aug-08 09:15 153 25.6
2020-Aug-08 09:00 061 26.1
2020-Aug-08 08:45 061 26.1
2020-Aug-08 08:30 061 26.1
2020-Aug-08 08:15 099 26.1
2020-Aug-08 08:00 100 26.1
2020-Aug-08 07:45 150 26.1
2020-Aug-08 07:30 153 26.1
2020-Aug-08 07:15 170 26.1
2020-Aug-08 07:00 138 26.1
2020-Aug-08 06:45 152 26.1
2020-Aug-08 06:30 131 4 gusting 6 26.7
2020-Aug-08 06:15 148 1 gusting 3 26.7
2020-Aug-08 06:00 144 26.7
2020-Aug-08 05:45 189 26.7
2020-Aug-08 05:30 160 26.7
2020-Aug-08 05:15 162 26.7
2020-Aug-08 05:00 155 26.7
2020-Aug-08 04:45 151 26.7
2020-Aug-08 04:30 151 27.2
2020-Aug-08 04:15 137 27.2
2020-Aug-08 04:01 155 27.2
2020-Aug-08 03:47 144 27.2
2020-Aug-08 03:31 121 27.2
2020-Aug-08 03:16 030 27.8
2020-Aug-08 03:01 171 1 gusting 4 27.8
2020-Aug-08 02:46 360 27.8
2020-Aug-08 02:31 011 27.8
2020-Aug-08 02:16 161 28.3
2020-Aug-08 02:02 185 28.3
2020-Aug-08 01:46 046 28.3
2020-Aug-08 01:31 046 28.9
2020-Aug-08 01:16 114 0 gusting 5 29.4
2020-Aug-08 01:01 048 30.0
2020-Aug-08 00:46 036 30.6
2020-Aug-08 00:31 033 31.1
2020-Aug-08 00:16 005 31.1
2020-Aug-08 00:01 311 31.1
2020-Aug-07 23:47 291 31.7
2020-Aug-07 23:31 312 31.7
2020-Aug-07 23:16 306 0 gusting 8 31.7
2020-Aug-07 23:01 280 5 gusting 11 32.2
2020-Aug-07 22:46 304 32.8
2020-Aug-07 22:31 277 0 gusting 6 33.3
2020-Aug-07 22:16 165 33.9
2020-Aug-07 22:01 309 2 gusting 7 34.4
2020-Aug-07 21:46 278 0 gusting 6 35.0
2020-Aug-07 21:31 049 35.0
2020-Aug-07 21:16 331 36.1
2020-Aug-07 21:00 301 38.3
2020-Aug-07 20:45 039 38.3
2020-Aug-07 20:30 054 1 gusting 8 37.2
2020-Aug-07 20:15 040 0 gusting 8 36.1
2020-Aug-07 20:00 027 4 gusting 10 35.6
2020-Aug-07 19:45 117 1 gusting 11 33.9
2020-Aug-07 19:30 005 2 gusting 8 32.8
2020-Aug-07 19:15 304 32.2
2020-Aug-07 19:00 310 3 gusting 8 31.1
2020-Aug-07 18:45 278 1 gusting 11 30.6
2020-Aug-07 18:30 280 5 gusting 13 30.6
2020-Aug-07 18:15 187 32.2
2020-Aug-07 18:02 211 3 gusting 9 32.2
2020-Aug-07 17:46 165 6 gusting 8 32.2
2020-Aug-07 17:31 213 1 gusting 8 31.1
2020-Aug-07 17:17 203 3 gusting 6 31.1
2020-Aug-07 17:01 153 2 gusting 6 30.6
2020-Aug-07 16:47 171 3 gusting 6 30.6
2020-Aug-07 16:31 159 3 gusting 6 30.0
2020-Aug-07 16:15 131 2 gusting 6 29.4
2020-Aug-07 16:01 137 4 gusting 6 29.4
2020-Aug-07 15:46 155 2 gusting 6 29.4
2020-Aug-07 15:31 125 0 gusting 6 28.9
2020-Aug-07 15:15 175 3 gusting 6 28.9
2020-Aug-07 15:00 146 2 gusting 5 28.9
2020-Aug-07 14:45 170 2 gusting 6 28.3
2020-Aug-07 14:30 140 1 gusting 6 27.8
2020-Aug-07 14:15 157 2 gusting 4 27.8
2020-Aug-07 14:00 156 27.8
2020-Aug-07 13:45 159 27.2
2020-Aug-07 13:30 168 0 gusting 5 27.2
2020-Aug-07 13:15 175 26.7
2020-Aug-07 13:00 134 26.7
2020-Aug-07 12:45 180 26.1
2020-Aug-07 12:30 151 26.1
2020-Aug-07 12:15 139 0 gusting 4 26.1
2020-Aug-07 12:00 145 25.6
2020-Aug-07 11:45 160 25.6
2020-Aug-07 11:30 142 0 gusting 2 25.6
2020-Aug-07 11:16 152 25.6
2020-Aug-07 11:02 148 25.6
2020-Aug-07 10:46 148 25.6
2020-Aug-07 10:31 148 25.6
2020-Aug-07 10:16 122 25.6
2020-Aug-07 10:01 133 25.6
2020-Aug-07 09:47 145 25.6
2020-Aug-07 09:31 132 25.6
2020-Aug-07 09:17 138 26.1
2020-Aug-07 09:02 136 26.1